Location: Kershaw
(34.5481°N, 80.5823°W)
Time: 15:18:23
(UTC+00:00)

Vanguard 1 Rocket - Pass Details

Date: 05 October 2022
Orbit: 650 x 4225 km, 34.3° (Epoch: 08 December)

Event Time Altitude Azimuth Distance (km) Brightness Sun altitude
Rises 05:22:54 0° 284° (WNW) 6,246 11.7 -60.1°
Enters shadow 05:26:18 - 282° (WNW) 5,165 11.2 -60.0°
Reaches altitude 10° 05:27:54 10° 281° (W) 4,637 - -59.9°
Maximum altitude 05:38:48 57° 207° (SSW) 1,456 - -59.5°
Drops below altitude 10° 05:44:40 10° 129° (SE) 2,565 - -59.2°
Sets 05:46:42 0° 124° (SE) 3,306 - -59.1°
